Weather History for KSQL - December, 2013

Change the Weather History Date:

Sunday, December 29, 2013

  Actual Average Record
Temperature  
Mean Temperature 52 °F -  
Max Temperature 64 °F 57 °F 69 °F (1967)
Min Temperature 41 °F 38 °F 28 °F (1990)
Degree Days  
Heating Degree Days 12    
Growing Degree Days 2 (Base 50)    
Moisture  
Dew Point 28 °F    
Average Humidity 49    
Maximum Humidity 70    
Minimum Humidity 15    
Precipitation  
Precipitation 0.00 in - - ()
Sea Level Pressure  
Sea Level Pressure 30.13 in    
Wind  
Wind Speed 2 mph (SSW)    
Max Wind Speed 7 mph    
Max Gust Speed -    
Visibility 10 miles    
Events      
Averages and records for this station are not official NWS values.
T = Trace of Precipitation, MM = Missing Value Source: NWS Daily Summary

Daily Weather History Graph

Daily Weather History Graph

Search for Another Location

Airport or City:

Trip Planner

Search our weather history database for the weather conditions in past years. The results will help you decide how hot, cold, wet, or windy it might be!

Date:

Astronomy

Dec. 29, 2013 Rise Set
Actual Time 7:23 AM PST 4:59 PM PST
Civil Twilight 6:53 AM PST 5:28 PM PST
Nautical Twilight 6:21 AM PST 6:01 PM PST
Astronomical Twilight 5:49 AM PST 6:33 PM PST
Moon 4:14 AM PST (12/29) 2:40 PM PST (12/29)
Length of Visible Light 10h 34m
Length of Day
9h 36m
Waning Crescent, 10% of the Moon is Illuminated
Dec 29
Waning Crescent
Jan 1
New
Jan 7
First Quarter
Jan 15
Full
Jan 23
Last Quarter

Hourly Weather History & Observations

Time (PST) Temp. Windchill Dew Point Humidity Pressure Visibility Wind Dir Wind Speed Gust Speed Precip Events Conditions
12:15 AM 44.6 °F - 32.0 °F 61% 30.10 in 10.0 mi Calm Calm - N/A   Clear
12:35 AM 44.6 °F - 32.0 °F 61% 30.10 in 10.0 mi Calm Calm - N/A   Clear
12:55 AM 42.8 °F - 32.0 °F 66% 30.11 in 10.0 mi Calm Calm - N/A   Clear
1:15 AM 42.8 °F - 32.0 °F 66% 30.11 in 10.0 mi Calm Calm - N/A   Clear
1:35 AM 41.0 °F 39.0 °F 32.0 °F 70% 30.11 in 10.0 mi SSE 3.5 mph - N/A   Clear
1:55 AM 41.0 °F 38.0 °F 32.0 °F 70% 30.11 in 10.0 mi SW 4.6 mph - N/A   Clear
2:15 AM 41.0 °F - 32.0 °F 70% 30.11 in 10.0 mi Calm Calm - N/A   Clear
2:35 AM 41.0 °F - 32.0 °F 70% 30.11 in 10.0 mi Calm Calm - N/A   Clear
2:55 AM 41.0 °F 38.0 °F 32.0 °F 70% 30.11 in 10.0 mi SW 4.6 mph - N/A   Clear
3:15 AM 41.0 °F - 32.0 °F 70% 30.12 in 10.0 mi Calm Calm - N/A   Clear
3:35 AM 41.0 °F 38.0 °F 30.2 °F 65% 30.11 in 10.0 mi SSW 4.6 mph - N/A   Clear
3:55 AM 44.6 °F - 28.4 °F 53% 30.11 in 10.0 mi Calm Calm - N/A   Clear
4:15 AM 42.8 °F 39.3 °F 28.4 °F 57% 30.11 in 10.0 mi SSW 5.8 mph - N/A   Clear
4:35 AM 44.6 °F 43.1 °F 26.6 °F 49% 30.11 in 10.0 mi SSW 3.5 mph - N/A   Clear
4:55 AM 44.6 °F 43.1 °F 26.6 °F 49% 30.11 in 10.0 mi SSW 3.5 mph - N/A   Clear
5:15 AM 44.6 °F 42.2 °F 26.6 °F 49% 30.12 in 10.0 mi South 4.6 mph - N/A   Clear
5:35 AM 44.6 °F 43.1 °F 24.8 °F 46% 30.12 in 10.0 mi South 3.5 mph - N/A   Clear
5:55 AM 46.4 °F 42.9 °F 24.8 °F 43% 30.12 in 10.0 mi SSW 6.9 mph - N/A   Clear
6:15 AM 48.2 °F - 24.8 °F 40% 30.12 in 10.0 mi South 3.5 mph - N/A   Clear
6:35 AM 46.4 °F 44.3 °F 23.0 °F 40% 30.13 in 10.0 mi SSW 4.6 mph - N/A   Clear
6:47 AM 46.4 °F - 23.0 °F 40% 30.13 in 10.0 mi Calm Calm - N/A   Clear
6:55 AM 46.4 °F 42.9 °F 23.0 °F 40% 30.13 in 10.0 mi South 6.9 mph - N/A   Clear
7:47 AM 46.4 °F 45.2 °F 23.0 °F 40% 30.14 in 10.0 mi South 3.5 mph - N/A   Clear
8:50 AM 50.0 °F - 32.0 °F 50% 30.17 in 10.0 mi Calm Calm - N/A   Clear
10:47 AM 60.8 °F - 14.0 °F 16% 30.18 in 10.0 mi Calm Calm - N/A   Clear
11:53 AM 62.6 °F - 23.0 °F 22% 30.16 in 10.0 mi NNW 5.8 mph - N/A   Clear
12:50 PM 64.4 °F - 15.8 °F 15% 30.13 in 10.0 mi WSW 4.6 mph - N/A   Clear
1:50 PM 62.6 °F - 28.4 °F 27% 30.11 in 10.0 mi Calm Calm - N/A   Partly Cloudy
2:50 PM 64.4 °F - 26.6 °F 24% 30.11 in 10.0 mi Calm Calm - N/A   Partly Cloudy
3:54 PM 64.4 °F - 33.8 °F 32% 30.10 in 10.0 mi Calm Calm - N/A   Partly Cloudy
4:49 PM 62.6 °F - 24.8 °F 24% 30.12 in 10.0 mi Calm Calm - N/A   Partly Cloudy
5:48 PM 57.2 °F - 24.8 °F 29% 30.13 in 10.0 mi WNW 4.6 mph - N/A   Clear
6:50 PM - - - N/A% 30.13 in 10.0 mi WNW 3.5 mph - N/A   Clear
7:50 PM - - - N/A% 30.14 in 10.0 mi Calm Calm - N/A   Clear
8:50 PM 46.4 °F 45.2 °F 30.2 °F 53% 30.16 in 10.0 mi South 3.5 mph - N/A   Clear
9:15 PM 48.2 °F - 28.4 °F 46% 30.16 in 10.0 mi Calm Calm - N/A   Clear
9:35 PM 48.2 °F - 28.4 °F 46% 30.16 in 10.0 mi Calm Calm - N/A   Clear
9:55 PM 46.4 °F - 28.4 °F 50% 30.17 in 10.0 mi Calm Calm - N/A   Clear
10:15 PM 46.4 °F - 30.2 °F 53% 30.17 in 10.0 mi Calm Calm - N/A   Clear
10:35 PM 46.4 °F - 28.4 °F 50% 30.18 in 10.0 mi Calm Calm - N/A   Clear
10:55 PM 46.4 °F - 28.4 °F 50% 30.18 in 10.0 mi Calm Calm - N/A   Clear
11:15 PM 46.4 °F - 32.0 °F 57% 30.18 in 10.0 mi Calm Calm - N/A   Clear
11:35 PM 44.6 °F - 30.2 °F 57% 30.19 in 10.0 mi Calm Calm - N/A   Clear
11:55 PM 46.4 °F - 32.0 °F 57% 30.18 in 10.0 mi Calm Calm - N/A   Clear